Weather History for Orr, MN

Change the Weather History Date:

Monday, April 29, 2013

  Actual Average Record
Temperature  
Mean Temperature 46 °F -  
Max Temperature 64 °F 58 °F 78 °F (2001)
Min Temperature 28 °F 31 °F 26 °F (2008)
Degree Days  
Heating Degree Days 19    
Moisture  
Dew Point 22 °F    
Average Humidity 42    
Maximum Humidity 93    
Minimum Humidity 14    
Precipitation  
Precipitation 0.00 in - - ()
Sea Level Pressure  
Sea Level Pressure 29.71 in    
Wind  
Wind Speed 4 mph (South)    
Max Wind Speed 10 mph    
Max Gust Speed -    
Visibility 10 miles    
Events      
Averages and records for this station are not official NWS values.
T = Trace of Precipitation, MM = Missing Value Source: NWS Daily Summary

Daily Weather History Graph

Daily Weather History Graph

Search for Another Location

Airport:

Trip Planner

Search our weather history database for the weather conditions in past years. The results will help you decide how hot, cold, wet, or windy it might be!

Date:

Astronomy

Apr. 29, 2013 Rise Set
Actual Time 5:56 AM CDT 8:22 PM CDT
Civil Twilight 5:21 AM CDT 8:56 PM CDT
Nautical Twilight 4:38 AM CDT 9:40 PM CDT
Astronomical Twilight 3:48 AM CDT 10:30 PM CDT
Moon No Moon Rise 9:09 AM CDT (4/29)
Length of Visible Light 15h 35m
Length of Day
14h 26m
Waning Gibbous, 80% of the Moon is Illuminated
Apr 29
Waning Gibbous
May 2
Last Quarter
May 9
New
May 17
First Quarter
May 24
Full

Hourly Weather History & Observations

Time (CDT) Temp. Windchill Dew Point Humidity Pressure Visibility Wind Dir Wind Speed Gust Speed Precip Events Conditions
12:13 AM 42.8 °F 40.1 °F 26.6 °F 53% 29.74 in 10.0 mi NW 4.6 mph - N/A   Clear
12:33 AM 42.8 °F 39.3 °F 26.6 °F 53% 29.75 in 10.0 mi NW 5.8 mph - N/A   Clear
12:53 AM 41.0 °F 37.1 °F 24.8 °F 53% 29.76 in 10.0 mi NW 5.8 mph - N/A   Clear
1:13 AM 41.0 °F 37.1 °F 24.8 °F 53% 29.76 in 10.0 mi NW 5.8 mph - N/A   Clear
1:33 AM 41.0 °F 37.1 °F 24.8 °F 53% 29.77 in 10.0 mi NW 5.8 mph - N/A   Clear
1:53 AM 39.2 °F 35.0 °F 24.8 °F 56% 29.77 in 10.0 mi NW 5.8 mph - N/A   Clear
2:13 AM 39.2 °F 35.0 °F 24.8 °F 56% 29.77 in 10.0 mi NW 5.8 mph - N/A   Clear
2:33 AM 37.4 °F 33.8 °F 24.8 °F 60% 29.77 in 10.0 mi NW 4.6 mph - N/A   Clear
2:53 AM 35.6 °F 32.8 °F 24.8 °F 65% 29.77 in 10.0 mi NW 3.5 mph - N/A   Clear
3:14 AM 33.8 °F 29.6 °F 24.8 °F 70% 29.78 in 10.0 mi NW 4.6 mph - N/A   Clear
3:33 AM 33.8 °F 30.8 °F 24.8 °F 70% 29.79 in 10.0 mi NW 3.5 mph - N/A   Clear
3:53 AM 32.0 °F - 24.8 °F 75% 29.79 in 10.0 mi Calm Calm - N/A   Clear
4:13 AM 32.0 °F - 24.8 °F 75% 29.80 in 10.0 mi Calm Calm - N/A   Clear
4:33 AM 30.2 °F 26.7 °F 26.6 °F 86% 29.81 in 10.0 mi NW 3.5 mph - N/A   Clear
4:53 AM 30.2 °F - 24.8 °F 80% 29.81 in 10.0 mi Calm Calm - N/A   Clear
5:13 AM 33.8 °F 30.8 °F 26.6 °F 75% 29.81 in 10.0 mi NW 3.5 mph - N/A   Clear
5:33 AM 33.8 °F 28.6 °F 26.6 °F 75% 29.82 in 10.0 mi NW 5.8 mph - N/A   Clear
5:53 AM 33.8 °F 29.6 °F 26.6 °F 75% 29.82 in 10.0 mi NW 4.6 mph - N/A   Clear
6:13 AM 30.2 °F - 26.6 °F 86% 29.82 in 10.0 mi Calm Calm - N/A   Clear
6:33 AM 30.2 °F - 26.6 °F 86% 29.81 in 10.0 mi Calm Calm - N/A   Clear
6:53 AM 28.4 °F - 26.6 °F 93% 29.82 in 10.0 mi Calm Calm - N/A   Clear
7:13 AM 30.2 °F - 26.6 °F 86% 29.82 in 10.0 mi Calm Calm - N/A   Clear
7:33 AM 33.8 °F - 26.6 °F 75% 29.82 in 10.0 mi Calm Calm - N/A   Clear
7:53 AM 35.6 °F - 26.6 °F 70% 29.81 in 10.0 mi Calm Calm - N/A   Clear
8:13 AM 37.4 °F - 28.4 °F 70% 29.81 in 10.0 mi Calm Calm - N/A   Clear
8:34 AM 39.2 °F 35.9 °F 28.4 °F 65% 29.81 in 10.0 mi WNW 4.6 mph - N/A   Clear
8:53 AM 39.2 °F - 28.4 °F 65% 29.81 in 10.0 mi Calm Calm - N/A   Clear
9:13 AM 44.6 °F - 28.4 °F 53% 29.80 in 10.0 mi Calm Calm - N/A   Clear
9:34 AM 46.4 °F - 26.6 °F 46% 29.80 in 10.0 mi Calm Calm - N/A   Clear
9:53 AM 48.2 °F - 26.6 °F 43% 29.79 in 10.0 mi Calm Calm - N/A   Clear
10:13 AM 48.2 °F - 26.6 °F 43% 29.77 in 10.0 mi SSE 3.5 mph - N/A   Clear
10:33 AM 50.0 °F - 26.6 °F 40% 29.76 in 10.0 mi Calm Calm - N/A   Clear
10:53 AM 51.8 °F - 26.6 °F 38% 29.75 in 10.0 mi SE 5.8 mph - N/A   Clear
11:13 AM 53.6 °F - 21.2 °F 28% 29.74 in 10.0 mi SE 5.8 mph - N/A   Clear
11:33 AM 53.6 °F - 23.0 °F 30% 29.74 in 10.0 mi South 4.6 mph - N/A   Clear
11:53 AM 55.4 °F - 23.0 °F 29% 29.74 in 10.0 mi South 5.8 mph - N/A   Clear
12:13 PM 55.4 °F - 21.2 °F 26% 29.74 in 10.0 mi SSW 5.8 mph - N/A   Clear
12:33 PM 57.2 °F - 17.6 °F 21% 29.74 in 10.0 mi South 4.6 mph - N/A   Clear
12:53 PM 57.2 °F - 19.4 °F 23% 29.74 in 10.0 mi SSE 4.6 mph - N/A   Clear
1:13 PM 57.2 °F - 17.6 °F 21% 29.72 in 10.0 mi SE 3.5 mph - N/A   Clear
1:33 PM 59.0 °F - 19.4 °F 22% 29.71 in 10.0 mi SSE 3.5 mph - N/A   Clear
1:53 PM 59.0 °F - 19.4 °F 22% 29.70 in 10.0 mi SSE 5.8 mph - N/A   Clear
2:13 PM 60.8 °F - 19.4 °F 20% 29.70 in 10.0 mi South 6.9 mph - N/A   Clear
2:33 PM 60.8 °F - 17.6 °F 19% 29.68 in 10.0 mi SSE 4.6 mph - N/A   Clear
2:54 PM 62.6 °F - 17.6 °F 18% 29.67 in 10.0 mi SE 5.8 mph - N/A   Clear
3:13 PM 62.6 °F - 15.8 °F 16% 29.66 in 10.0 mi South 5.8 mph - N/A   Clear
3:33 PM 62.6 °F - 17.6 °F 18% 29.65 in 10.0 mi SE 10.4 mph - N/A   Clear
3:53 PM 62.6 °F - 15.8 °F 16% 29.64 in 10.0 mi SSE 5.8 mph - N/A   Clear
4:13 PM 62.6 °F - 15.8 °F 16% 29.63 in 10.0 mi SSE 10.4 mph - N/A   Clear
4:33 PM 62.6 °F - 15.8 °F 16% 29.63 in 10.0 mi SSE 6.9 mph - N/A   Clear
4:53 PM 64.4 °F - 15.8 °F 15% 29.62 in 10.0 mi South 4.6 mph - N/A   Clear
5:13 PM 64.4 °F - 14.0 °F 14% 29.62 in 10.0 mi South 6.9 mph - N/A   Clear
5:33 PM 64.4 °F - 14.0 °F 14% 29.61 in 10.0 mi South 6.9 mph - N/A   Clear
5:53 PM 62.6 °F - 14.0 °F 15% 29.61 in 10.0 mi SSE 8.1 mph - N/A   Clear
6:14 PM 62.6 °F - 15.8 °F 16% 29.60 in 10.0 mi South 3.5 mph - N/A   Clear
6:33 PM 60.8 °F - 17.6 °F 19% 29.61 in 10.0 mi Calm Calm - N/A   Clear
6:53 PM 62.6 °F - 15.8 °F 16% 29.61 in 10.0 mi Calm Calm - N/A   Clear
7:14 PM 60.8 °F - 17.6 °F 19% 29.61 in 10.0 mi Calm Calm - N/A   Clear
7:34 PM 57.2 °F - 15.8 °F 20% 29.61 in 10.0 mi Calm Calm - N/A   Clear
7:53 PM 57.2 °F - 17.6 °F 21% 29.61 in 10.0 mi Calm Calm - N/A   Clear
8:13 PM 53.6 °F - 17.6 °F 24% 29.61 in 10.0 mi SE 4.6 mph - N/A   Clear
8:33 PM 53.6 °F - 19.4 °F 26% 29.61 in 10.0 mi SE 5.8 mph - N/A   Clear
8:53 PM 53.6 °F - 19.4 °F 26% 29.61 in 10.0 mi Calm Calm - N/A   Clear
9:13 PM 53.6 °F - 19.4 °F 26% 29.62 in 10.0 mi Calm Calm - N/A   Clear
9:33 PM 53.6 °F - 19.4 °F 26% 29.61 in 10.0 mi ESE 3.5 mph - N/A   Clear
9:53 PM 51.8 °F - 19.4 °F 28% 29.61 in 10.0 mi ESE 3.5 mph - N/A   Clear
10:13 PM 50.0 °F - 19.4 °F 30% 29.61 in 10.0 mi ESE 3.5 mph - N/A   Clear
10:33 PM 51.8 °F - 19.4 °F 28% 29.60 in 10.0 mi Calm Calm - N/A   Clear
10:53 PM 51.8 °F - 21.2 °F 30% 29.60 in 10.0 mi SE 3.5 mph - N/A   Clear
11:13 PM 50.0 °F - 21.2 °F 32% 29.60 in 10.0 mi SE 4.6 mph - N/A   Clear
11:33 PM 50.0 °F - 24.8 °F 37% 29.59 in 10.0 mi SE 5.8 mph - N/A   Clear
11:53 PM 48.2 °F - 26.6 °F 43% 29.59 in 10.0 mi SE 5.8 mph - N/A   Clear